FW1313 Weather Reports


Display with metric or nautical units.
time (UTC)temp
F
wind
direction
speed
MPH
gust
MPH
rain 1hr
in
rain 24hr
in
rain mn
in
humidity
%
barometer
mb
20210123170335 30 210 0.0 2.0 0.00 0.00 0.00 95 1002.8
20210123163321 29 153 0.0 2.0 0.00 0.00 0.00 95 1002.6
20210123160321 28 166 0.0 3.0 0.00 0.00 0.00 94 1002.5
20210123153324 28 169 1.0 2.0 0.00 0.00 0.00 94 1002.4
20210123150324 27 205 0.0 3.0 0.00 0.00 0.00 94 1002.4
20210123143321 27 120 1.0 3.0 0.00 0.00 0.00 94 1002.3
20210123140326 27 163 0.0 3.0 0.00 0.00 0.00 94 1002.2
20210123133321 27 225 0.0 2.0 0.00 0.00 0.00 94 1002.3
20210123130323 28 186 0.0 3.0 0.00 0.00 0.00 94 1002.6
20210123123322 27 207 1.0 4.0 0.00 0.00 0.00 94 1002.7
20210123120324 28 211 0.0 4.0 0.00 0.00 0.00 94 1002.7
20210123113321 28 209 2.0 4.0 0.00 0.00 0.00 94 1003.2
20210123110323 29 204 0.0 5.0 0.00 0.00 0.00 95 1003.4
20210123103326 29 236 0.0 4.0 0.00 0.00 0.00 95 1003.6
20210123100322 29 207 1.0 4.0 0.00 0.00 0.00 95 1003.7
20210123093325 29 207 0.0 5.0 0.00 0.00 0.00 95 1004.1
20210123090321 30 230 2.0 4.0 0.00 0.00 0.00 95 1003.7
20210123083338 30 204 2.0 5.0 0.00 0.00 0.00 95 1003.5
20210123080322 30 212 2.0 6.0 0.00 0.00 0.00 95 1003.9
20210123073324 31 211 0.0 5.0 0.00 0.00 0.00 95 1004.2
20210123070323 30 217 2.0 7.0 0.00 0.00 0.00 95 1004.3
20210123063321 30 217 2.0 6.0 0.00 0.00 0.00 95 1004.6
20210123060321 29 210 3.0 7.0 0.00 0.00 0.00 94 1004.8
20210123053322 30 231 4.0 6.0 0.00 0.00 0.00 95 1005.0
20210123050321 30 212 4.0 7.0 0.00 0.00 0.00 95 1004.6
20210123043321 31 207 0.0 6.0 0.00 0.00 0.00 95 1004.8
20210123040323 31 228 0.0 5.0 0.00 0.00 0.00 95 1004.8
20210123033322 30 249 1.0 5.0 0.00 0.00 0.00 95 1005.1
20210123030322 31 218 1.0 5.0 0.00 0.00 0.00 95 1005.3
20210123023322 31 210 2.0 4.0 0.00 0.00 0.00 95 1005.8
20210123020321 32 226 0.0 5.0 0.00 0.00 0.00 95 1005.8
20210123013323 33 207 4.0 8.0 0.00 0.00 0.00 95 1005.1
20210123010322 34 210 3.0 8.0 0.00 0.00 0.00 95 1004.5
20210123003321 34 214 5.0 9.0 0.00 0.00 0.00 94 1004.6
20210123000326 35 217 4.0 8.0 0.00 0.00 0.00 94 1004.2
20210122233321 36 241 3.0 8.0 0.00 0.00 0.00 94 1004.4
20210122230321 36 210 2.0 6.0 0.00 0.00 0.00 94 1004.5
20210122223321 36 181 2.0 9.0 0.00 0.00 0.00 93 1004.8
20210122220322 36 208 2.0 6.0 0.00 0.00 0.00 92 1005.1
20210122213320 36 214 3.0 5.0 0.00 0.00 0.00 91 1005.2
20210122210328 36 197 0.0 5.0 0.00 0.00 0.00 91 1005.4
20210122203323 36 126 0.0 6.0 0.00 0.00 0.00 91 1005.9
20210122200326 36 194 2.0 6.0 0.00 0.00 0.00 91 1006.6
20210122193320 36 241 0.0 5.0 0.00 0.00 0.00 89 1007.1
20210122190320 38 217 0.0 6.0 0.00 0.00 0.00 86 1007.4
20210122183321 38 243 2.0 7.0 0.00 0.00 0.00 84 1007.9
20210122180321 40 129 0.0 5.0 0.00 0.00 0.00 75 1008.4
20210122173321 37 82 1.0 4.0 0.00 0.00 0.00 83 1008.7